Wind_Speed
14 14 13 11 10 11 14 12 11 11 12 13 13 14 15 15 14 13 13 13 13 13 12 8 5 7 9 12 11 10 10 8 8 11 13 11 11 11 9 9 9 7 7 5 6 7 6 6 6
14 14 13 9 4 12 13 14 12 11 11 12 12 13 12 13 13 13 14 14 14 15 16 14 12 10 10 12 12 11 11 10 11 16 11 7 6 6 4 4 4 4 5 4 5 5 6 7 4
14 15 13 9 12 13 13 11 11 11 12 12 13 14 13 13 14 13 13 14 14 15 16 15 14 16 15 11 9 8 8 6 7 6 6 6 6 4 2 1 2 2 3 3 3 3 3 3 3
13 14 13 9 14 13 11 10 9 10 10 11 11 12 13 13 15 15 14 14 16 16 15 14 14 15 14 15 14 11 7 5 3 3 2 1 1 1 2 2 3 3 4 4 4 3 4 4 4
12 12 13 12 14 11 9 8 8 8 9 9 8 9 9 10 11 12 13 13 14 14 15 16 16 14 13 13 13 11 9 8 7 7 6 4 3 3 2 1 2 2 4 4 3 3 4 5 5
13 10 10 10 13 9 5 6 5 5 6 7 7 8 8 7 8 9 10 10 11 11 12 12 12 13 14 13 13 11 9 7 7 6 5 4 3 3 2 2 2 3 3 4 5 5 7 6 6
10 9 7 5 11 8 5 4 3 2 2 4 5 5 6 6 7 7 8 7 8 8 9 10 11 10 10 10 9 8 9 7 7 7 5 3 2 1 2 3 4 5 6 7 8 8 7 5 5
11 10 9 7 9 7 4 3 1 2 3 4 3 4 4 4 5 6 6 6 6 6 6 7 7 8 8 7 6 6 5 4 4 3 2 2 1 1 2 3 4 6 7 8 7 7 7 7 7
11 10 10 9 7 6 4 3 1 1 1 2 3 3 3 4 4 4 5 6 6 7 7 7 7 7 7 6 5 4 3 1 1 1 0 2 4 4 5 6 6 7 7 8 8 9 10 9 6
12 12 10 8 9 8 5 2 1 2 1 2 2 2 4 4 3 4 5 5 6 7 7 7 7 7 6 6 4 3 3 3 3 3 3 4 5 6 6 7 8 9 10 11 11 11 10 9 9
14 15 10 11 10 8 6 3 2 2 2 3 3 1 4 4 4 3 3 4 4 5 6 7 8 8 8 6 6 5 5 5 6 5 5 7 8 9 8 9 9 10 11 13 13 12 10 10 13
18 17 14 15 13 10 9 7 6 6 1 4 5 5 2 3 2 4 4 4 4 5 5 6 6 7 8 9 8 8 8 8 9 9 9 10 11 11 11 13 13 12 13 14 14 13 13 14 16
22 20 18 19 16 14 13 10 7 10 4 8 6 6 6 4 3 2 2 3 4 5 6 7 8 8 8 10 9 10 10 11 12 13 12 12 13 14 14 13 15 16 17 17 17 17 18 19 20
24 23 24 23 21 18 17 14 9 13 6 8 10 7 8 7 4 4 2 3 5 7 7 8 9 10 11 13 12 12 13 14 14 16 16 15 15 18 18 16 17 17 18 20 21 22 22 24 25
27 27 26 26 25 23 21 17 15 13 11 10 10 10 9 9 7 6 3 3 2 4 7 8 9 9 10 11 12 14 15 16 17 18 19 18 18 18 21 21 20 20 19 20 22 23 26 28 30
29 29 28 28 29 27 25 18 21 16 14 13 10 11 10 10 9 9 6 4 5 3 5 9 10 11 11 13 14 15 16 16 19 20 21 21 21 22 22 22 23 24 24 24 25 25 26 29 32
27 28 30 31 30 29 28 22 23 19 17 14 12 11 11 11 11 12 9 9 7 8 9 11 15 15 15 15 17 18 19 20 20 21 22 24 24 24 26 25 26 27 26 27 27 27 27 28 30
29 29 31 31 31 32 31 26 25 23 19 16 14 14 12 12 15 12 11 10 12 11 13 14 15 19 19 19 18 20 21 23 24 25 26 26 28 27 30 30 29 30 30 31 31 31 31 32 33
30 30 31 32 31 31 31 29 26 25 21 18 18 17 14 15 16 14 13 15 14 16 17 17 17 19 20 21 21 22 23 25 26 27 30 32 32 32 34 33 34 35 34 34 34 35 36 37 36
30 31 31 32 33 32 33 29 27 26 21 20 19 18 19 18 19 18 17 16 18 19 18 19 19 19 22 22 23 25 27 27 27 29 31 36 37 34 35 37 38 38 38 39 39 40 40 41 41
31 31 32 33 34 32 33 32 29 27 24 22 21 22 23 23 22 22 21 20 20 21 23 22 22 23 25 25 26 28 29 30 30 31 31 36 37 35 36 38 40 42 43 41 41 42 43 44 44
33 33 34 35 36 35 34 33 29 26 27 24 24 26 27 26 25 25 25 25 24 26 27 27 26 27 26 29 29 31 31 31 33 34 33 35 37 36 37 38 39 40 42 42 42 43 44 44 44
36 36 36 37 37 37 34 38 23 28 28 27 27 28 28 29 29 29 29 29 29 28 29 30 30 31 30 32 32 34 35 36 35 34 35 36 39 40 39 38 38 39 41 42 42 44 45 45 45
40 40 40 39 39 40 37 37 33 27 28 30 29 30 32 33 33 33 34 34 34 33 33 33 34 35 36 36 36 36 36 38 38 36 34 34 37 42 43 43 41 40 40 42 43 45 47 48 49
41 42 42 43 42 41 42 40 43 34 31 32 31 32 34 36 37 37 38 38 38 38 37 37 38 39 39 40 40 39 39 40 38 37 38 34 35 39 42 44 43 43 43 45 45 47 48 48 50
42 43 43 46 45 43 45 43 43 45 36 36 38 38 36 37 38 40 41 40 43 42 42 41 42 43 43 44 44 42 42 42 42 39 37 38 36 38 41 42 43 43 43 44 45 46 47 48 49
47 48 46 46 47 48 47 44 43 45 45 39 40 41 42 42 42 43 43 44 45 44 44 45 46 47 48 49 48 46 44 43 42 41 40 39 38 40 44 45 45 46 46 46 47 48 50 51 52
53 51 50 50 52 52 51 48 46 46 47 47 44 45 45 46 47 46 46 46 47 48 49 50 51 51 52 53 52 49 45 45 43 42 42 43 43 41 44 47 46 48 48 49 49 50 52 53 54
52 52 52 52 52 54 55 51 49 48 50 52 52 51 51 50 49 49 49 48 49 51 52 53 54 55 55 55 54 51 48 47 45 43 42 45 49 52 53 55 52 50 50 52 53 53 54 53 54
53 55 55 56 55 54 56 57 51 52 53 54 55 56 56 55 52 51 50 51 51 51 52 55 56 56 55 54 53 52 53 50 48 49 48 48 49 53 55 56 54 53 51 50 50 50 51 52 53
Wind_Direction
134 135 124 123 125 125 91 82 66 58 51 49 51 57 63 63 71 79 78 80 77 80 88 96 80 92 87 109 116 184 211 217 203 196 201 208 215 228 243 256 268 273 270 267 262 271 267 267 271
138 128 122 128 160 99 90 88 78 67 62 57 57 58 64 65 64 66 67 70 75 74 78 74 73 80 97 116 125 140 143 186 204 206 187 192 210 217 220 240 276 276 265 270 273 266 267 275 276
139 129 122 114 123 100 94 88 86 78 71 67 65 67 67 68 70 67 65 68 69 67 71 77 77 76 84 109 130 127 121 127 117 137 151 160 163 164 177 227 245 251 266 264 257 259 268 255 249
147 127 120 128 105 100 98 91 84 81 74 66 66 70 72 71 72 71 73 71 72 71 71 79 78 75 80 90 89 91 97 108 128 143 155 173 176 243 252 253 253 266 257 254 254 245 243 234 226
151 142 139 126 107 98 96 85 81 76 72 68 59 63 70 71 71 71 69 64 66 68 73 72 77 80 79 79 83 85 86 90 86 81 76 72 72 66 50 343 296 277 280 272 262 257 249 241 249
160 158 135 130 112 106 95 89 79 70 74 74 68 60 58 61 62 63 63 63 62 63 66 72 75 81 84 82 83 82 84 86 85 81 77 64 54 51 23 338 313 301 293 279 266 256 255 264 268
172 153 129 141 116 121 113 102 93 59 22 61 65 63 55 48 42 50 55 52 53 53 55 60 66 71 77 84 82 83 86 85 86 83 77 69 40 360 317 298 283 281 275 275 275 276 278 277 269
182 167 156 150 130 132 121 95 83 82 43 47 46 25 39 33 34 32 42 41 36 33 32 41 49 53 54 61 75 87 90 93 90 91 92 67 43 17 311 303 294 291 287 286 289 290 291 288 276
191 191 182 168 150 143 133 107 28 27 54 49 54 24 33 7 27 29 22 22 28 26 26 21 18 24 27 24 24 30 49 50 89 115 132 268 272 278 279 285 289 290 289 286 285 285 283 277 257
199 210 209 181 189 181 164 166 71 6 329 14 21 47 14 20 3 16 32 28 10 8 12 12 12 7 4 2 353 334 323 311 320 333 338 307 284 279 277 276 278 281 282 280 277 277 275 264 255
214 222 217 203 215 213 190 203 270 288 336 260 299 355 339 354 26 27 32 33 12 2 5 2 2 357 354 347 335 323 306 306 316 326 319 299 293 283 275 271 268 273 274 276 276 270 256 252 258
220 229 226 231 221 223 225 212 243 269 291 288 271 287 294 319 359 59 58 43 28 10 3 352 352 347 346 340 336 321 310 306 310 311 311 308 301 290 283 281 274 271 273 271 269 258 256 256 259
223 232 231 236 233 232 239 235 244 261 260 287 272 268 280 274 274 343 35 16 31 26 9 2 350 348 338 329 332 322 317 306 302 304 306 302 302 303 299 293 286 284 285 278 267 262 263 265 267
229 228 233 234 238 238 240 244 240 252 270 278 283 268 271 262 245 258 329 12 7 10 9 6 356 350 344 336 332 325 317 313 306 303 303 301 298 299 301 301 295 288 285 282 279 272 267 268 270
231 231 234 238 239 240 241 243 242 255 261 256 277 262 258 258 248 251 240 289 337 355 354 356 357 357 350 341 336 327 322 313 306 301 299 295 291 287 290 293 293 294 294 287 283 283 280 277 277
231 233 233 235 239 240 243 239 244 249 253 264 264 262 255 243 249 256 259 264 290 319 339 336 343 341 342 343 339 332 321 311 302 299 295 291 288 288 286 288 291 292 294 292 289 287 288 290 289
235 236 236 234 239 241 243 236 246 244 248 256 256 250 238 247 250 259 268 277 276 294 312 318 320 322 324 326 325 324 319 307 300 297 293 291 289 285 284 284 285 287 288 288 288 291 292 291 291
237 236 239 239 239 240 241 236 243 247 246 251 239 243 241 244 254 262 269 275 289 296 302 308 311 312 316 318 321 322 321 314 305 297 293 289 285 284 280 279 279 279 280 281 284 285 285 285 287
239 240 241 243 241 244 245 241 241 245 242 251 237 239 239 244 256 258 267 280 288 294 297 299 302 305 311 315 317 324 321 316 310 298 292 287 283 280 281 282 281 280 280 280 280 280 280 282 287
246 244 243 246 246 244 245 242 242 245 244 243 241 245 244 249 257 263 270 279 290 293 293 296 299 302 305 308 314 321 320 313 306 303 295 290 286 285 285 282 280 280 279 279 280 281 284 286 287
247 246 245 245 247 247 245 244 241 241 240 244 239 240 246 253 261 267 273 279 284 285 288 293 297 298 301 301 306 314 317 311 303 295 294 293 291 287 285 283 281 281 282 283 284 284 283 285 287
249 249 248 247 248 247 248 249 240 236 241 240 244 247 248 253 259 266 270 274 277 284 289 290 292 295 295 296 301 307 314 315 306 296 288 287 287 283 283 283 282 281 282 284 283 282 282 284 287
247 247 249 249 249 250 248 257 229 237 241 244 243 248 253 257 260 264 270 274 277 277 282 287 289 293 294 293 298 303 310 314 312 306 291 285 284 284 283 284 283 282 281 282 282 282 283 284 286
246 248 249 249 250 250 251 256 255 242 244 245 248 250 253 255 260 265 271 274 278 278 279 279 284 286 291 292 293 296 302 307 311 308 302 291 284 283 283 282 282 283 282 282 282 282 283 284 285
248 248 250 252 251 254 256 253 263 255 251 254 251 248 251 256 260 262 264 268 271 274 274 275 279 282 286 287 289 293 296 300 307 309 301 290 282 280 281 283 283 283 284 284 284 283 284 285 286
245 247 250 252 253 253 256 255 258 264 258 259 264 261 256 255 257 262 264 268 269 270 272 274 276 279 281 284 286 288 290 295 302 307 303 296 284 280 279 280 282 282 283 283 283 283 285 286 286
244 246 248 250 252 250 251 255 257 264 268 261 261 264 266 264 262 264 266 267 269 271 272 272 273 276 279 281 283 285 287 289 293 298 300 293 289 280 276 276 277 278 280 280 281 282 283 284 284
245 243 244 246 248 250 253 253 256 262 269 274 269 264 263 264 264 263 264 266 267 268 270 273 274 276 278 280 283 284 284 287 289 296 296 290 288 284 279 279 278 279 280 281 284 285 283 283 283
246 248 249 251 249 253 255 253 255 259 262 265 269 270 269 267 266 266 265 266 267 266 267 268 270 271 273 276 280 283 284 285 288 292 290 287 285 284 283 282 284 285 285 284 286 287 287 286 284
249 247 248 249 251 251 255 253 257 259 262 265 268 271 273 277 281 281 277 272 270 270 269 268 269 272 275 277 280 282 285 286 288 292 288 284 281 280 282 283 284 285 285 284 284 286 286 285 284
Height
5862 5863 5862 5863 5867 5865 5864 5866 5866 5866 5866 5866 5865 5865 5866 5866 5866 5869 5868 5868 5868 5868 5868 5868 5867 5869 5870 5872 5873 5874 5876 5877 5878 5880 5883 5885 5885 5886 5886 5886 5887 5886 5886 5886 5886 5886 5886 5886 5887
5863 5863 5863 5864 5868 5865 5866 5867 5868 5868 5868 5868 5868 5867 5867 5867 5868 5868 5869 5869 5869 5869 5869 5868 5870 5871 5870 5873 5873 5875 5876 5877 5877 5879 5882 5883 5884 5884 5884 5885 5885 5884 5885 5885 5885 5884 5885 5886 5885
5864 5863 5864 5866 5866 5866 5868 5869 5870 5870 5870 5870 5870 5870 5869 5869 5870 5870 5870 5870 5870 5869 5869 5872 5872 5872 5872 5873 5874 5876 5876 5878 5878 5880 5881 5882 5882 5882 5883 5884 5884 5884 5884 5884 5884 5884 5884 5885 5884
5865 5864 5866 5868 5865 5867 5870 5869 5870 5871 5872 5871 5871 5872 5872 5871 5871 5872 5872 5872 5872 5872 5873 5873 5873 5873 5875 5874 5875 5876 5877 5877 5879 5879 5880 5881 5881 5882 5882 5883 5883 5883 5883 5883 5883 5882 5883 5883 5883
5865 5865 5865 5866 5866 5868 5870 5870 5872 5872 5872 5873 5873 5873 5873 5872 5872 5872 5873 5873 5873 5873 5873 5874 5874 5875 5875 5875 5876 5877 5879 5880 5880 5879 5880 5881 5881 5881 5881 5882 5882 5882 5882 5882 5881 5882 5882 5881 5881
5865 5866 5865 5867 5867 5869 5871 5872 5873 5874 5874 5874 5874 5874 5875 5874 5873 5874 5874 5874 5875 5875 5875 5876 5876 5877 5876 5877 5877 5878 5879 5880 5879 5880 5880 5881 5881 5880 5881 5881 5881 5881 5881 5881 5881 5880 5880 5880 5880
5866 5866 5867 5868 5867 5869 5871 5873 5874 5875 5875 5875 5875 5874 5875 5875 5874 5875 5875 5875 5876 5876 5876 5877 5877 5878 5878 5878 5879 5879 5879 5880 5879 5879 5879 5880 5880 5880 5880 5880 5880 5880 5880 5880 5879 5879 5879 5879 5879
5865 5865 5867 5868 5868 5870 5872 5873 5875 5876 5876 5876 5876 5875 5875 5875 5875 5875 5876 5876 5876 5877 5877 5878 5878 5878 5878 5878 5879 5879 5879 5880 5879 5879 5879 5879 5879 5879 5879 5879 5879 5879 5878 5878 5878 5878 5877 5878 5878
5864 5866 5867 5868 5868 5871 5872 5873 5875 5876 5877 5877 5877 5876 5876 5876 5876 5876 5876 5877 5877 5877 5877 5877 5877 5877 5878 5878 5878 5878 5878 5880 5880 5879 5879 5879 5879 5878 5878 5878 5878 5877 5877 5877 5877 5876 5876 5876 5876
5863 5865 5867 5869 5869 5870 5871 5873 5874 5876 5876 5877 5877 5877 5876 5876 5876 5876 5876 5877 5877 5877 5877 5878 5878 5878 5878 5878 5878 5879 5879 5879 5879 5878 5878 5878 5878 5878 5877 5877 5877 5876 5876 5875 5875 5875 5874 5874 5874
5862 5863 5867 5867 5869 5870 5871 5872 5873 5875 5876 5876 5876 5877 5876 5876 5875 5875 5875 5876 5876 5876 5877 5877 5877 5877 5878 5878 5878 5878 5878 5878 5877 5877 5877 5877 5877 5876 5876 5875 5875 5874 5873 5873 5872 5872 5872 5872 5871
5859 5861 5865 5865 5867 5869 5871 5871 5873 5873 5875 5876 5876 5876 5877 5876 5876 5875 5875 5875 5875 5875 5875 5876 5876 5876 5876 5876 5876 5876 5876 5876 5875 5875 5876 5874 5874 5874 5874 5873 5872 5872 5870 5870 5869 5868 5868 5869 5869
5854 5858 5861 5863 5865 5867 5868 5870 5871 5871 5873 5873 5876 5876 5876 5876 5875 5875 5875 5875 5875 5875 5875 5875 5874 5875 5875 5874 5874 5874 5875 5874 5873 5873 5874 5873 5872 5870 5870 5870 5869 5869 5868 5866 5866 5865 5865 5865 5865
5852 5854 5856 5859 5861 5863 5866 5867 5869 5868 5871 5871 5873 5875 5876 5876 5875 5875 5875 5875 5874 5874 5874 5874 5874 5874 5873 5872 5872 5872 5872 5871 5871 5870 5870 5871 5870 5868 5867 5867 5866 5865 5865 5863 5862 5861 5861 5860 5860
5847 5850 5852 5855 5858 5859 5863 5866 5866 5866 5868 5869 5869 5871 5873 5873 5874 5874 5874 5874 5874 5874 5872 5872 5872 5872 5871 5871 5870 5869 5868 5868 5868 5867 5866 5867 5866 5866 5863 5863 5862 5861 5860 5859 5858 5856 5855 5854 5854
5841 5845 5848 5850 5852 5855 5859 5863 5861 5862 5865 5866 5867 5867 5869 5871 5872 5872 5873 5873 5872 5873 5872 5871 5870 5869 5869 5868 5867 5866 5865 5864 5863 5863 5862 5861 5861 5861 5860 5858 5857 5855 5855 5854 5852 5851 5850 5848 5846
5837 5840 5842 5844 5847 5850 5854 5858 5857 5858 5860 5862 5863 5864 5865 5866 5868 5869 5870 5870 5870 5870 5870 5869 5867 5867 5867 5866 5864 5863 5862 5859 5858 5857 5856 5855 5855 5854 5853 5853 5851 5850 5849 5848 5846 5845 5844 5843 5840
5830 5833 5836 5839 5842 5844 5847 5852 5853 5854 5856 5858 5859 5860 5862 5863 5864 5866 5867 5867 5866 5867 5866 5866 5865 5862 5862 5861 5860 5859 5857 5855 5853 5851 5849 5848 5847 5847 5845 5844 5843 5842 5841 5840 5839 5838 5837 5835 5834
5824 5828 5830 5833 5836 5840 5842 5846 5848 5848 5852 5854 5855 5856 5858 5859 5859 5862 5862 5862 5863 5862 5862 5861 5861 5859 5857 5856 5855 5854 5853 5851 5849 5846 5843 5841 5840 5839 5837 5837 5836 5834 5834 5832 5832 5830 5829 5828 5827
5819 5822 5825 5827 5829 5833 5835 5839 5844 5844 5848 5850 5852 5853 5853 5854 5854 5856 5858 5858 5857 5856 5856 5856 5856 5855 5853 5851 5849 5848 5847 5845 5843 5840 5838 5835 5833 5833 5831 5829 5827 5825 5824 5823 5822 5821 5819 5818 5817
5814 5816 5818 5820 5822 5826 5828 5832 5836 5839 5843 5845 5846 5847 5848 5849 5850 5851 5852 5853 5852 5851 5850 5850 5850 5849 5847 5845 5844 5843 5841 5839 5837 5834 5831 5827 5826 5825 5823 5822 5819 5817 5815 5815 5813 5812 5810 5808 5806
5808 5810 5811 5813 5815 5819 5821 5821 5830 5834 5836 5839 5841 5841 5842 5844 5845 5845 5846 5847 5847 5846 5844 5844 5844 5843 5841 5839 5838 5836 5834 5832 5829 5826 5823 5820 5817 5816 5814 5813 5811 5809 5807 5805 5803 5801 5799 5798 5796
5800 5802 5804 5807 5809 5811 5816 5814 5826 5827 5830 5832 5834 5835 5836 5837 5837 5838 5839 5839 5840 5839 5838 5836 5836 5835 5834 5832 5830 5828 5826 5824 5821 5818 5816 5813 5809 5806 5805 5804 5801 5801 5798 5796 5794 5791 5789 5787 5786
5791 5794 5796 5798 5802 5804 5809 5811 5812 5822 5824 5825 5827 5828 5828 5830 5830 5831 5831 5830 5830 5830 5830 5829 5827 5826 5825 5824 5822 5821 5820 5817 5813 5810 5807 5806 5802 5798 5795 5793 5792 5791 5789 5787 5785 5782 5779 5776 5774
5782 5785 5788 5791 5794 5798 5799 5804 5802 5811 5815 5816 5818 5819 5820 5821 5821 5822 5822 5821 5822 5820 5819 5819 5819 5817 5816 5815 5813 5812 5811 5809 5805 5802 5799 5796 5792 5790 5786 5782 5780 5780 5779 5777 5774 5771 5768 5765 5761
5773 5775 5779 5779 5784 5790 5790 5794 5797 5796 5807 5808 5807 5808 5810 5811 5811 5810 5811 5810 5809 5810 5810 5809 5808 5807 5806 5804 5804 5803 5801 5800 5796 5792 5790 5787 5784 5780 5776 5773 5771 5768 5767 5765 5763 5760 5757 5754 5751
5763 5766 5768 5769 5774 5776 5781 5787 5789 5789 5789 5796 5798 5798 5798 5799 5799 5799 5799 5798 5797 5798 5799 5798 5797 5796 5795 5794 5793 5792 5791 5790 5788 5785 5782 5777 5774 5771 5767 5762 5760 5758 5756 5753 5751 5749 5745 5742 5738
5750 5755 5756 5757 5761 5763 5770 5776 5780 5781 5780 5779 5783 5784 5785 5785 5786 5787 5787 5787 5786 5786 5785 5785 5785 5784 5783 5782 5781 5781 5780 5779 5776 5773 5769 5766 5762 5759 5755 5751 5749 5746 5744 5742 5739 5737 5733 5730 5726
5741 5743 5746 5749 5751 5752 5758 5766 5769 5770 5771 5768 5767 5768 5768 5770 5772 5773 5774 5775 5774 5773 5772 5771 5771 5771 5770 5770 5769 5769 5768 5766 5764 5762 5758 5754 5751 5747 5743 5738 5737 5735 5732 5730 5727 5724 5720 5716 5712
5726 5731 5732 5733 5739 5742 5746 5754 5760 5759 5758 5756 5754 5755 5754 5753 5754 5756 5757 5757 5758 5758 5759 5759 5758 5757 5757 5757 5757 5756 5753 5751 5750 5747 5743 5740 5737 5733 5729 5725 5723 5720 5718 5715 5712 5709 5705 5701 5698